Regional Weather Roundup
Issued by NWS Newport/Morehead, NC

Current Version | Previous Version | Text Only | Print | Product List | Glossary On
Versions: 1 2 3 4 5 6 7 8 9 10 11 12 13 14 15 16 17 18 19 20 21 22 23 24 25 26 27 28 29 30 31 32 33 34 35 36 37 38 39 40 41 42 43 44 45 46 47 48 49 50
000
ASUS42 KMHX 252310
RWRMHX
WEATHER ROUNDUP FOR EASTERN NORTH CAROLINA
NATIONAL WEATHER SERVICE NEWPORT/MOREHEAD CITY NC
700 PM EDT FRI JUL 25 2014

NOTE: "FAIR" INDICATES FEW OR NO CLOUDS BELOW 12,000 FEET
WITH NO SIGNIFICANT WEATHER AND/OR OBSTRUCTIONS TO VISIBILITY

NCZ015>017-031-032-045>047-102-103-260000-
NORTH COAST

CITY           SKY/WX    TMP DP  RH WIND       PRES   REMARKS
EDENTON        PTSUNNY   78  66  67 E6        30.03R
ELIZABETH CITY MOSUNNY   77  60  55 E7        30.04R
KITTY HAWK     PTCLDY    77  61  57 NE3       30.04R
MANTEO         NOT AVBL

$$

NCZ045>047-081-094-103-104-260000-
CENTRAL COAST

CITY           SKY/WX    TMP DP  RH WIND       PRES   REMARKS
FRISCO         PTSUNNY   80  68  66 E6        30.02S
SWANQUARTER      N/A     79 N/A N/A E5G10     29.97S

$$

NCZ095-097-098-100-101-260000-
SOUTHERN COAST

CITY           SKY/WX    TMP DP  RH WIND       PRES   REMARKS
BEAUFORT       PTSUNNY   80  69  69 E3        30.00F
CEDAR ISLAND     N/A     79 N/A N/A E6G12     30.06S
JACKSONVILLE   CLOUDY    78  71  79 S6        30.00S
NEWPORT        NOT AVBL
PINEY ISLAND   PTCLDY    82  71  69 E8        30.01F
WILMINGTON     CLOUDY    79  73  82 E7        29.99F


$$

NCZ011>013-027>030-043-044-078>080-089-090>093-098-260000-
COASTAL PLAIN

CITY           SKY/WX    TMP DP  RH WIND       PRES   REMARKS
AHOSKIE        MOSUNNY   77  69  75 CALM      30.04R
CLINTON        MOSUNNY   81  74  79 CALM      30.01S
ELIZABETHTOWN  CLOUDY    81  73  77 E5        29.99F
GOLDSBORO      PTSUNNY   81  73  78 S3        29.99S
GREENVILLE     PTSUNNY   81  70  69 S5        30.03R
HAVELOCK       CLOUDY    79  69  71 SE5       30.02S
KENANSVILLE    CLOUDY    79  71  77 CALM      30.02S
KINSTON        MOSUNNY   81  72  74 S5        30.01S
NEW BERN       CLOUDY    81  71  71 S3        30.02S
RICHLANDS      CLOUDY    79  70  73 S7        30.01S
ROANOKE RAPIDS NOT AVBL
ROCKY MOUNT    CLOUDY    81  69  67 CALM      30.02R
WASHINGTON     MOSUNNY   80  69  68 SE3       30.01S
WHITEVILLE     CLOUDY    82  74  78 CALM      29.98S

$$

AMZ130-135-150-152-154-156-158-170-250-252-270-ANZ085-086-088-633-658-670-260000-
MARINE OBSERVATIONS

STATION/POSITION TIME  TEMP    WIND        PRES    WAVE   SWELL
                       AIR SEA DIR/SP/G            HT/PER HT/PER
                 (UTC) (F)     (DEG/KT/KT) (MB)    (FT/S) (FT/S)
CHESAPEAKE LIGHT NOT AVBL
BUOY 44014       2300   76 78  330/  4/  6 1016.8    2/ 7   2/ 7
DUCK             2300   76 77   50/  8/  9 1016.6
2E DUCK          2300                        N/A     2/ 5
OREGON INLET     2300   76 80   40/  7/  9 1017.1
BUOY 44095       2300      78                N/A     3/ 7
20E OREGON INLET NOT AVBL
HATTERAS CG      2300   78 81   90/  5/  7 1016.8
DIAMOND BUOY     2300          VRB  6/  8  1016.2    3/ 7   3/ 7
CAPE LOOKOUT     2200   78      70/  6/  7 1016.1
BEAUFORT LAB     2300   79 81  110/  4/  6 1015.8
30 SE NEW RIVER  2300   79 81   80/  8/ 10 1016.1    3/ 6   3/ 6
5 SE WRIGHTSVILL 2200   76 82  130/  8/ 10   N/A
BUOY 41002       2158   82 82  240/ 12/ 14 1017.1    4/ 7   3/ 7
BUOY 41004       2300   82 83  210/ 12/ 14 1014.5    3/ 5   2/ 7

$$


USA.gov is the U.S. government's official web portal to all federal, state and local government web resources and services.